JAL830 RJTT-RCTP

Flight info

Callsign JAL830
Flight time N/A
Altitude 40000
Route +LAXAS Y56 TOHME Y54 TURFY Y24 KOSHI Y50 IGMON A1 DRAKE DRAKE1A
Aircraft A359/H-SDE2E3GHIJ3J4J5LM1ORWXY/LB1D1

Departure

Time 2026-02-17 13:58
Airport Tokyo Haneda International Airport (RJTT)

Arrival

Time N/A
Airport Taiwan Taoyuan International Airport (RCTP)
Time Latitude Longitude Altitude Speed Heading
2026-02-17 12:54 35.54588 139.77030 29 ft 0 kts 240°
2026-02-17 13:32 35.54591 139.77037 29 ft 2 kts 241°
2026-02-17 13:33 35.54600 139.77059 29 ft 3 kts 247°
2026-02-17 13:33 35.54607 139.77081 28 ft 3 kts 256°
2026-02-17 13:33 35.54611 139.77106 27 ft 3 kts 270°
2026-02-17 13:33 35.54609 139.77129 27 ft 3 kts 298°
2026-02-17 13:34 35.54601 139.77142 27 ft 1 kts 329°
2026-02-17 13:34 35.54600 139.77143 27 ft 4 kts 329°
2026-02-17 13:39 35.54642 139.77112 29 ft 13 kts 329°
2026-02-17 13:39 35.54736 139.77117 29 ft 17 kts 46°
2026-02-17 13:40 35.54805 139.77250 29 ft 20 kts 60°
2026-02-17 13:40 35.54841 139.77328 29 ft 8 kts 60°
2026-02-17 13:40 35.54872 139.77411 29 ft 13 kts 82°
2026-02-17 13:40 35.54815 139.77491 29 ft 15 kts 150°
2026-02-17 13:41 35.54697 139.77574 29 ft 23 kts 150°
2026-02-17 13:41 35.54552 139.77676 29 ft 26 kts 150°
2026-02-17 13:41 35.54386 139.77795 29 ft 29 kts 150°
2026-02-17 13:41 35.54221 139.77913 29 ft 23 kts 148°
2026-02-17 13:42 35.54099 139.78000 29 ft 15 kts 150°
2026-02-17 13:42 35.54082 139.78012 29 ft 5 kts 150°
2026-02-17 13:42 35.54022 139.78054 29 ft 14 kts 151°
2026-02-17 13:43 35.54002 139.78164 29 ft 0 kts 59°
2026-02-17 13:45 35.54005 139.78170 29 ft 2 kts 59°
2026-02-17 13:46 35.54033 139.78228 31 ft 14 kts 60°
2026-02-17 13:46 35.54102 139.78373 30 ft 25 kts 59°
2026-02-17 13:46 35.54101 139.78503 29 ft 15 kts 143°
2026-02-17 13:47 35.53833 139.78696 30 ft 25 kts 150°
2026-02-17 13:47 35.53803 139.78719 30 ft 0 kts 142°
2026-02-17 13:47 35.53796 139.78728 30 ft 2 kts 132°
2026-02-17 13:48 35.53772 139.78745 30 ft 10 kts 148°
2026-02-17 13:48 35.53678 139.78835 30 ft 23 kts 140°
2026-02-17 13:48 35.53531 139.78987 30 ft 30 kts 140°
2026-02-17 13:49 35.53406 139.79125 30 ft 20 kts 131°
2026-02-17 13:49 35.53388 139.79288 30 ft 22 kts 60°
2026-02-17 13:49 35.53472 139.79463 30 ft 26 kts 59°
2026-02-17 13:49 35.53567 139.79664 30 ft 29 kts 59°
2026-02-17 13:50 35.53670 139.79881 30 ft 28 kts 59°
2026-02-17 13:50 35.53703 139.80009 30 ft 11 kts 108°
2026-02-17 13:50 35.53624 139.80085 30 ft 18 kts 147°
2026-02-17 13:51 35.53474 139.80189 30 ft 18 kts 150°
2026-02-17 13:51 35.53338 139.80286 30 ft 27 kts 150°
2026-02-17 13:51 35.53197 139.80387 30 ft 19 kts 149°
2026-02-17 13:51 35.53069 139.80477 30 ft 24 kts 150°
2026-02-17 13:52 35.52945 139.80502 30 ft 19 kts 213°
2026-02-17 13:52 35.52836 139.80379 30 ft 24 kts 223°
2026-02-17 13:52 35.52706 139.80233 30 ft 26 kts 222°
2026-02-17 13:52 35.52610 139.80138 30 ft 14 kts 194°
2026-02-17 13:53 35.52530 139.80200 30 ft 15 kts 134°
2026-02-17 13:53 35.52487 139.80257 30 ft 0 kts 131°
2026-02-17 13:56 35.52487 139.80258 30 ft 1 kts 131°
2026-02-17 13:56 35.52468 139.80283 30 ft 8 kts 131°
2026-02-17 13:56 35.52429 139.80349 29 ft 10 kts 108°
2026-02-17 13:57 35.52441 139.80401 29 ft 10 kts 46°
2026-02-17 13:57 35.52499 139.80458 29 ft 13 kts 43°
2026-02-17 13:57 35.52742 139.80728 29 ft 94 kts 42°
2026-02-17 13:57 35.53454 139.81514 85 ft 175 kts 40°
2026-02-17 13:58 35.54438 139.82622 748 ft 200 kts 41°
2026-02-17 13:58 35.55432 139.83914 1789 ft 219 kts 58°
2026-02-17 13:58 35.55910 139.85733 2223 ft 237 kts 88°
2026-02-17 13:59 35.55074 139.89759 3540 ft 250 kts 107°
2026-02-17 13:59 35.54612 139.91851 4218 ft 256 kts 111°
2026-02-17 13:59 35.53674 139.93698 4841 ft 258 kts 139°
2026-02-17 13:59 35.52119 139.94740 5487 ft 256 kts 169°
2026-02-17 14:00 35.50361 139.94774 6256 ft 252 kts 190°
2026-02-17 14:00 35.48641 139.94397 7038 ft 251 kts 194°
2026-02-17 14:00 35.46933 139.93942 7755 ft 252 kts 198°
2026-02-17 14:00 35.45330 139.93094 8450 ft 251 kts 216°
2026-02-17 14:01 35.44043 139.91705 9180 ft 250 kts 227°
2026-02-17 14:01 35.42863 139.90133 9953 ft 251 kts 229°
2026-02-17 14:01 35.41674 139.88511 10415 ft 263 kts 230°
2026-02-17 14:01 35.40407 139.86793 10681 ft 280 kts 230°
2026-02-17 14:02 35.39059 139.84982 10931 ft 296 kts 230°
2026-02-17 14:02 35.37628 139.83071 11174 ft 311 kts 230°
2026-02-17 14:02 35.36140 139.81090 11567 ft 320 kts 230°
2026-02-17 14:03 35.33094 139.77052 12759 ft 324 kts 230°
2026-02-17 14:03 35.31551 139.75042 13375 ft 325 kts 229°
2026-02-17 14:03 35.29871 139.73159 13943 ft 329 kts 226°
2026-02-17 14:03 35.28125 139.71326 14434 ft 331 kts 225°
2026-02-17 14:04 35.26366 139.69496 14946 ft 333 kts 225°
2026-02-17 14:04 35.24617 139.67676 15455 ft 335 kts 226°
2026-02-17 14:04 35.22835 139.65819 15922 ft 337 kts 226°
2026-02-17 14:04 35.21045 139.63955 16433 ft 339 kts 226°
2026-02-17 14:05 35.19246 139.62081 16962 ft 341 kts 226°
2026-02-17 14:05 35.17435 139.60195 17461 ft 343 kts 227°
2026-02-17 14:05 35.15616 139.58301 17967 ft 344 kts 227°
2026-02-17 14:05 35.13784 139.56396 18463 ft 346 kts 227°
2026-02-17 14:06 35.11943 139.54481 18875 ft 348 kts 227°
2026-02-17 14:06 35.10100 139.52556 19294 ft 349 kts 228°
2026-02-17 14:06 35.08441 139.50430 19713 ft 342 kts 238°
2026-02-17 14:07 35.06596 139.45212 20576 ft 335 kts 259°
2026-02-17 14:07 35.06127 139.42417 20997 ft 336 kts 260°
2026-02-17 14:07 35.05677 139.39611 21419 ft 337 kts 260°
2026-02-17 14:07 35.05227 139.36824 21823 ft 338 kts 260°
2026-02-17 14:08 35.04765 139.34005 22247 ft 339 kts 260°
2026-02-17 14:08 35.04296 139.31172 22651 ft 340 kts 260°
2026-02-17 14:08 35.03825 139.28336 23044 ft 342 kts 260°
2026-02-17 14:08 35.03349 139.25488 23438 ft 343 kts 260°
2026-02-17 14:09 35.02871 139.22632 23792 ft 344 kts 260°
2026-02-17 14:09 35.02396 139.19794 24083 ft 346 kts 260°
2026-02-17 14:09 35.01911 139.16903 24383 ft 347 kts 260°
2026-02-17 14:09 35.01424 139.14011 24689 ft 349 kts 260°
2026-02-17 14:10 35.00935 139.11109 24985 ft 350 kts 260°
2026-02-17 14:10 35.00441 139.08185 25302 ft 352 kts 260°
2026-02-17 14:10 34.99943 139.05248 25583 ft 354 kts 260°
2026-02-17 14:11 34.98977 138.99331 26314 ft 356 kts 263°
2026-02-17 14:11 34.98708 138.96362 26657 ft 357 kts 265°
2026-02-17 14:11 34.98505 138.93334 27020 ft 358 kts 266°
2026-02-17 14:11 34.98335 138.90294 27362 ft 360 kts 266°
2026-02-17 14:12 34.98181 138.87241 27723 ft 362 kts 266°
2026-02-17 14:12 34.98030 138.84169 28086 ft 363 kts 266°
2026-02-17 14:12 34.97878 138.81084 28509 ft 364 kts 266°
2026-02-17 14:12 34.97721 138.77997 28927 ft 366 kts 266°
2026-02-17 14:13 34.97558 138.74887 29299 ft 368 kts 266°
2026-02-17 14:13 34.97392 138.71761 29658 ft 370 kts 266°
2026-02-17 14:13 34.97225 138.68623 30026 ft 372 kts 266°
2026-02-17 14:13 34.97055 138.65455 30362 ft 374 kts 266°
2026-02-17 14:14 34.96884 138.62296 30842 ft 370 kts 266°
2026-02-17 14:14 34.96716 138.59216 31343 ft 367 kts 266°
2026-02-17 14:14 34.96547 138.56118 31727 ft 366 kts 266°
2026-02-17 14:15 34.96205 138.49904 32347 ft 369 kts 265°
2026-02-17 14:15 34.96031 138.46771 32499 ft 372 kts 265°
2026-02-17 14:15 34.95855 138.43624 32881 ft 370 kts 265°
2026-02-17 14:15 34.95682 138.40532 33569 ft 361 kts 265°
2026-02-17 14:16 34.95514 138.37519 34251 ft 352 kts 265°
2026-02-17 14:16 34.95348 138.34555 34642 ft 349 kts 265°
2026-02-17 14:16 34.95183 138.31640 34839 ft 350 kts 265°
2026-02-17 14:16 34.95017 138.28671 35009 ft 351 kts 265°
2026-02-17 14:17 34.94849 138.25699 35280 ft 351 kts 265°
2026-02-17 14:17 34.94677 138.22739 35576 ft 349 kts 265°
2026-02-17 14:17 34.94506 138.19804 35944 ft 345 kts 265°
2026-02-17 14:17 34.94337 138.16897 36268 ft 343 kts 265°
2026-02-17 14:18 34.94167 138.14002 36550 ft 342 kts 265°
2026-02-17 14:18 34.93998 138.11115 36783 ft 342 kts 265°
2026-02-17 14:18 34.93832 138.08227 37041 ft 341 kts 265°
2026-02-17 14:19 34.93503 138.02487 37550 ft 337 kts 265°
2026-02-17 14:19 34.93338 137.99678 37743 ft 336 kts 265°
2026-02-17 14:19 34.93167 137.96847 38011 ft 335 kts 265°
2026-02-17 14:19 34.92996 137.94017 38106 ft 336 kts 265°
2026-02-17 14:20 34.92650 137.88349 38106 ft 335 kts 265°
2026-02-17 14:20 34.92302 137.82682 38106 ft 335 kts 265°
2026-02-17 14:21 34.91956 137.77019 38104 ft 334 kts 265°
2026-02-17 14:21 34.91600 137.71378 38099 ft 333 kts 264°
2026-02-17 14:22 34.90049 137.63156 38106 ft 335 kts 255°
2026-02-17 14:23 34.87674 137.55124 38107 ft 336 kts 254°
2026-02-17 14:23 34.86053 137.49794 38100 ft 335 kts 254°
2026-02-17 14:24 34.84467 137.44453 38104 ft 335 kts 255°
2026-02-17 14:24 34.82946 137.39134 38107 ft 335 kts 255°
2026-02-17 14:25 34.81424 137.33783 38106 ft 334 kts 255°
2026-02-17 14:25 34.79898 137.28449 38108 ft 333 kts 255°
2026-02-17 14:26 34.78366 137.23118 38104 ft 333 kts 255°
2026-02-17 14:27 34.76073 137.15160 38109 ft 334 kts 255°
2026-02-17 14:27 34.74530 137.09818 38108 ft 336 kts 255°
2026-02-17 14:28 34.72973 137.04433 38105 ft 338 kts 254°
2026-02-17 14:28 34.71382 136.99059 38105 ft 339 kts 252°
2026-02-17 14:29 34.69168 136.93939 38106 ft 346 kts 244°
2026-02-17 14:29 34.66300 136.89239 38108 ft 349 kts 242°
2026-02-17 14:30 34.63278 136.84595 38106 ft 350 kts 241°
2026-02-17 14:31 34.57257 136.75382 38109 ft 345 kts 242°
2026-02-17 14:31 34.54286 136.70807 38114 ft 344 kts 242°
2026-02-17 14:32 34.51340 136.66267 38108 ft 344 kts 242°
2026-02-17 14:32 34.48374 136.61703 38118 ft 344 kts 242°
2026-02-17 14:33 34.45399 136.57135 38113 ft 345 kts 242°